This is the latest recevied weather packets stored in our database for station/object SM6LNJ-13. If no packets are shown the sender has not sent any weather packets the latest 1 day(s).
| Time | Temp. | Humidity | Pressure | Rain* | Wind** | Luminosity | Snow |
|---|---|---|---|---|---|---|---|
| 1778039870 | 2.78° C | 88% | 1419.4 hPa | 0 mm | 0.45 m/s, 102° | - | - |
| 1778039750 | 2.78° C | 88% | 1419.3 hPa | 0 mm | 0.45 m/s, 103° | - | - |
| 1778039630 | 2.78° C | 88% | 1422.6 hPa | 0 mm | 0.45 m/s, 98° | - | - |
| 1778039510 | 2.78° C | 88% | 1422.5 hPa | 0 mm | 0.45 m/s, 103° | - | - |
| 1778039390 | 2.78° C | 88% | 1425.8 hPa | 0 mm | 0.45 m/s, 84° | - | - |
| 1778039270 | 2.78° C | 88% | 1425.7 hPa | 0 mm | 0.45 m/s, 121° | - | - |
| 1778039150 | 2.78° C | 88% | 1425.6 hPa | 0 mm | 0 m/s | - | - |
| 1778039030 | 2.78° C | 88% | 1428.9 hPa | 0 mm | 0.45 m/s, 114° | - | - |
| 1778038910 | 2.78° C | 88% | 1428.9 hPa | 0 mm | 0 m/s | - | - |
| 1778038790 | 2.78° C | 88% | 1425.5 hPa | 0 mm | 0 m/s | - | - |
| 1778038670 | 2.78° C | 88% | 1425.6 hPa | 0 mm | 0 m/s | - | - |
| 1778038550 | 2.78° C | 88% | 1425.6 hPa | 0 mm | 0 m/s | - | - |
| 1778038430 | 2.78° C | 88% | 1425.6 hPa | 0 mm | 0.45 m/s, 106° | - | - |
| 1778038310 | 2.78° C | 88% | 1428.9 hPa | 0 mm | 0.45 m/s, 130° | - | - |
| 1778038190 | 2.78° C | 88% | 1428.9 hPa | 0 mm | 0.45 m/s, 111° | - | - |
| 1778038070 | 2.22° C | 88% | 1428.8 hPa | 0 mm | 0.45 m/s, 92° | - | - |
| 1778037950 | 2.22° C | 88% | 1428.7 hPa | 0 mm | 0.45 m/s, 100° | - | - |
| 1778037830 | 2.22° C | 88% | 1432.1 hPa | 0 mm | 0.45 m/s, 100° | - | - |
| 1778037710 | 2.22° C | 88% | 1432 hPa | 0 mm | 0.45 m/s, 100° | - | - |
| 1778037590 | 2.22° C | 88% | 1432 hPa | 0 mm | 0.45 m/s, 116° | - | - |
| 1778037470 | 2.22° C | 88% | 1428.7 hPa | 0 mm | 0 m/s | - | - |
| 1778037350 | 2.22° C | 88% | 1428.8 hPa | 0 mm | 0 m/s | - | - |
| 1778037231 | 2.78° C | 88% | 1428.8 hPa | 0 mm | 0 m/s | - | - |
| 1778037110 | 2.78° C | 88% | 1428.8 hPa | 0 mm | 0.45 m/s, 108° | - | - |
| 1778036990 | 2.22° C | 88% | 1428.8 hPa | 0 mm | 0.45 m/s, 103° | - | - |
* Rain latest hour (hover to see other rain measurements)
** Current wind speed in m/s (hover to see current wind gust speed)